Location: Battery Park City
(40.7115°N, 74.0163°W)
Time: 23:03:28
(UTC+00:00)

Feng Yun 1-1 Rocket - Pass Details

Date: 08 December 2019
Orbit: 830 x 933 km, 99.2° (Epoch: 22 January)

Event Time Altitude Azimuth Distance (km) Brightness Sun altitude
Rises 21:49:17 0° 148° (SSE) 3,377 7.3 -4.3°
Reaches altitude 10° 21:51:42 10° 142° (SE) 2,439 6.5 -4.7°
Maximum altitude 21:56:51 48° 70° (ENE) 1,081 4.4 -5.6°
Drops below altitude 10° 22:02:00 10° 357° (N) 2,447 6.4 -6.5°
Sets 22:04:26 0° 352° (N) 3,389 7.2 -6.9°
